NORTHEAST SUFFOLK  -  Air Quality Alert Air Quality Alert        NORTHERN NASSAU  -  Air Quality Alert Air Quality Alert        NORTHERN QUEENS  -  Air Quality Alert Air Quality Alert        NORTHWEST SUFFOLK  -  Air Quality Alert Air Quality Alert        SOUTHEAST SUFFOLK  -  Air Quality Alert Air Quality Alert        SOUTHERN NASSAU  -  Air Quality Alert Air Quality Alert        SOUTHERN QUEENS  -  Air Quality Alert Air Quality Alert        SOUTHWEST SUFFOLK  -  Air Quality Alert Air Quality Alert      

Active alerts

Northern Queens
  Details for Northern Queens Air Quality Alert
Southern Queens
  Details for Southern Queens Air Quality Alert
Northern Nassau
  Details for Northern Nassau Air Quality Alert
Southern Nassau
  Details for Southern Nassau Air Quality Alert
Northwest Suffolk
  Details for Northwest Suffolk Air Quality Alert
Southwest Suffolk
  Details for Southwest Suffolk Air Quality Alert
Northeast Suffolk
  Details for Northeast Suffolk Air Quality Alert
Southeast Suffolk
  Details for Southeast Suffolk Air Quality Alert


WXM80 ListenWXM80 Stop

You find our weather info also at:

UK Metoffice

WeatherCloud

Weather Underground

Northeastern Weather Network

AWEKAS

Citizen Weather Observer Program (CWOP)

HAMweather, WeatherForYou, PWS Weather


Weather Underground History page Text

Daily Summary for March 12, 2017 Units:  Metric    English   Both
« Previous Day
Next Day »
Daily Weekly Monthly Yearly Custom
  High: Low: Average:
Temperature: -0.3 °C -7.5 °C -4.1 °C
Dew Point: -10 °C -14.1 °C -12.3 °C
Humidity: 69 % 43 % 53 %
Wind Speed: 20.8 km/h 2.6 km/h 11.3 km/h
Wind Gust: 38.9 km/h - -
Wind:- - WNW
Pressure: 1028.7 hPa 1022.9 hPa -
Precipitation: 0 mm    
Historical Graphs
 
 
Tabular Data for March 12, 2017
Time Temperature Dew Point Pressure Wind Wind Speed Wind Gust Humidity Rainfall Rate (Hourly)
00:02 -5.4 °C -12.6 °C 1023.2 hPa WNW 13 km/h 20.4 km/h 57 % 0 mm
00:07 -5.4 °C -12.4 °C 1022.9 hPa WNW 11.3 km/h 33.3 km/h 58 % 0 mm
00:12 -5.4 °C -12.4 °C 1022.9 hPa WNW 17.4 km/h 24.1 km/h 58 % 0 mm
00:17 -5.5 °C -12.9 °C 1022.9 hPa West 19 km/h 31.5 km/h 56 % 0 mm
00:22 -5.5 °C -12.7 °C 1022.9 hPa WSW 14.6 km/h 25.9 km/h 57 % 0 mm
00:27 -5.5 °C -12.3 °C 1022.9 hPa WNW 13.8 km/h 20.9 km/h 59 % 0 mm
00:32 -5.6 °C -12.5 °C 1023.2 hPa WNW 11.9 km/h 24.1 km/h 58 % 0 mm
00:37 -5.6 °C -12.5 °C 1023.6 hPa West 15.3 km/h 22.2 km/h 58 % 0 mm
00:42 -5.6 °C -12.5 °C 1023.6 hPa WSW 10.8 km/h 18.5 km/h 58 % 0 mm
00:47 -5.6 °C -12.5 °C 1023.2 hPa West 8.4 km/h 24.1 km/h 58 % 0 mm
00:52 -5.6 °C -12.5 °C 1023.6 hPa NNW 16.7 km/h 27.8 km/h 58 % 0 mm
00:57 -5.6 °C -12.3 °C 1023.6 hPa WSW 5.3 km/h 18.5 km/h 59 % 0 mm
01:02 -5.6 °C -12.3 °C 1023.6 hPa WNW 7.1 km/h 20.4 km/h 59 % 0 mm
01:07 -5.6 °C -12.3 °C 1023.6 hPa WNW 16.3 km/h 25.9 km/h 59 % 0 mm
01:12 -5.6 °C -12.1 °C 1023.6 hPa NW 13.5 km/h 22.2 km/h 60 % 0 mm
01:17 -5.6 °C -12.1 °C 1023.6 hPa WNW 16.3 km/h 31.5 km/h 60 % 0 mm
01:22 -5.6 °C -12.3 °C 1023.6 hPa West 10 km/h 25.7 km/h 59 % 0 mm
01:27 -5.6 °C -12.1 °C 1023.6 hPa WNW 15.1 km/h 31.5 km/h 60 % 0 mm
01:32 -5.6 °C -12.2 °C 1023.6 hPa West 12.2 km/h 18.5 km/h 60 % 0 mm
01:37 -5.6 °C -11.9 °C 1023.6 hPa West 13.2 km/h 25.9 km/h 61 % 0 mm
01:42 -5.6 °C -12.2 °C 1023.6 hPa WNW 16.3 km/h 31.5 km/h 60 % 0 mm
01:47 -5.7 °C -12.4 °C 1023.6 hPa West 10 km/h 24.1 km/h 59 % 0 mm
01:53 -5.7 °C -12.2 °C 1023.9 hPa NW 10.3 km/h 16.7 km/h 60 % 0 mm
01:58 -5.7 °C -12.2 °C 1023.6 hPa NW 10 km/h 22.2 km/h 60 % 0 mm
03:03 -5.7 °C -12.3 °C 1023.6 hPa WNW 14.5 km/h 25.9 km/h 60 % 0 mm
03:08 -5.7 °C -12.3 °C 1023.9 hPa NW 10.8 km/h 24.1 km/h 60 % 0 mm
03:13 -5.7 °C -12.4 °C 1023.6 hPa North 17.9 km/h 27.8 km/h 59 % 0 mm
03:18 -5.8 °C -12.3 °C 1023.6 hPa West 18.3 km/h 31.5 km/h 60 % 0 mm
03:23 -5.8 °C -12.5 °C 1023.9 hPa NW 12.1 km/h 29.6 km/h 59 % 0 mm
03:28 -5.8 °C -12.5 °C 1023.6 hPa West 14.2 km/h 27.8 km/h 59 % 0 mm
03:33 -5.8 °C -12.4 °C 1023.6 hPa West 12.9 km/h 18.5 km/h 60 % 0 mm
03:38 -5.8 °C -12.4 °C 1023.9 hPa West 6.6 km/h 16.7 km/h 60 % 0 mm
03:43 -5.8 °C -11.9 °C 1023.6 hPa West 10.8 km/h 25.9 km/h 62 % 0 mm
03:48 -5.8 °C -11.9 °C 1023.6 hPa NW 13.5 km/h 24.1 km/h 62 % 0 mm
03:53 -5.8 °C -12.2 °C 1023.9 hPa WNW 16.1 km/h 24.1 km/h 61 % 0 mm
03:58 -5.9 °C -12.2 °C 1023.6 hPa WNW 11.3 km/h 24.1 km/h 61 % 0 mm
04:03 -5.9 °C -12.4 °C 1023.6 hPa West 16.7 km/h 24.1 km/h 60 % 0 mm
04:08 -5.9 °C -12.4 °C 1023.6 hPa NW 10 km/h 25.9 km/h 60 % 0 mm
04:13 -5.9 °C -12.3 °C 1023.6 hPa WNW 16.4 km/h 29.6 km/h 61 % 0 mm
04:18 -5.9 °C -12.3 °C 1023.6 hPa West 7.6 km/h 13 km/h 61 % 0 mm
04:23 -5.9 °C -12.3 °C 1023.6 hPa WNW 13.7 km/h 25.9 km/h 61 % 0 mm
04:28 -5.9 °C -12.3 °C 1023.6 hPa WNW 12.6 km/h 20.4 km/h 61 % 0 mm
04:29 -5.9 °C -12.4 °C 1023.6 hPa West 10.6 km/h 22.2 km/h 60 % 0 mm
04:34 -5.9 °C -12.4 °C 1023.9 hPa NW 16.9 km/h 31.5 km/h 60 % 0 mm
04:39 -6 °C -12.7 °C 1023.6 hPa West 10.9 km/h 38.9 km/h 59 % 0 mm
04:44 -6 °C -12.5 °C 1023.6 hPa WNW 13.7 km/h 22.5 km/h 60 % 0 mm
04:50 -6 °C -12.5 °C 1023.6 hPa North 14.5 km/h 20.4 km/h 60 % 0 mm
04:55 -6.1 °C -12.6 °C 1023.9 hPa NW 9.3 km/h 24.1 km/h 60 % 0 mm
05:00 -6.1 °C -12.4 °C 1023.9 hPa WNW 12.7 km/h 29.6 km/h 61 % 0 mm
05:05 -6.1 °C -12.4 °C 1023.9 hPa NW 7.2 km/h 14.5 km/h 61 % 0 mm
05:10 -6.1 °C -12.2 °C 1023.9 hPa WNW 8 km/h 16.7 km/h 62 % 0 mm
05:15 -6.1 °C -12.2 °C 1023.9 hPa NW 7.6 km/h 27.8 km/h 62 % 0 mm
05:20 -6.1 °C -12.2 °C 1024.3 hPa West 13.5 km/h 24.1 km/h 62 % 0 mm
05:25 -6.1 °C -12.2 °C 1023.9 hPa SW 11.9 km/h 18.5 km/h 62 % 0 mm
05:30 -6.1 °C -12.4 °C 1024.3 hPa NW 10.9 km/h 20.9 km/h 61 % 0 mm
05:35 -6.1 °C -12.6 °C 1024.3 hPa NNW 13.5 km/h 25.9 km/h 60 % 0 mm
05:40 -6.2 °C -12.3 °C 1024.3 hPa NW 14.2 km/h 25.7 km/h 62 % 0 mm
05:45 -6.2 °C -12.7 °C 1024.3 hPa NW 15.9 km/h 29.6 km/h 60 % 0 mm
05:50 -6.2 °C -12.5 °C 1024.3 hPa WNW 10.1 km/h 18.5 km/h 61 % 0 mm
05:55 -6.2 °C -12.7 °C 1024.3 hPa NW 16.9 km/h 25.9 km/h 60 % 0 mm
06:00 -6.3 °C -13 °C 1024.3 hPa WNW 12.9 km/h 20.9 km/h 59 % 0 mm
06:06 -6.3 °C -13.1 °C 1024.3 hPa NW 16.4 km/h 24.1 km/h 59 % 0 mm
06:11 -6.4 °C -13.1 °C 1024.3 hPa WNW 15.8 km/h 25.9 km/h 59 % 0 mm
06:16 -6.4 °C -13.2 °C 1023.9 hPa WNW 10 km/h 30.6 km/h 59 % 0 mm
06:21 -6.5 °C -13.2 °C 1023.9 hPa NNW 8.9 km/h 18.5 km/h 59 % 0 mm
06:26 -6.6 °C -13.4 °C 1024.3 hPa West 9.3 km/h 29.6 km/h 58 % 0 mm
06:31 -6.6 °C -13.7 °C 1024.3 hPa NW 10.6 km/h 25.9 km/h 57 % 0 mm
06:36 -6.7 °C -13.8 °C 1024.3 hPa West 6.8 km/h 16.7 km/h 57 % 0 mm
06:37 -6.7 °C -13.8 °C 1024.3 hPa NW 8.7 km/h 18.5 km/h 57 % 0 mm
06:42 -6.7 °C -13.6 °C 1024.3 hPa North 9.3 km/h 16.7 km/h 58 % 0 mm
06:47 -6.7 °C -12.7 °C 1024.3 hPa North 5.1 km/h 11.3 km/h 62 % 0 mm
06:52 -6.8 °C -12.3 °C 1024.6 hPa North 10.1 km/h 16.7 km/h 65 % 0 mm
06:57 -6.9 °C -11.8 °C 1024.3 hPa North 7.7 km/h 16.7 km/h 68 % 0 mm
07:02 -7 °C -11.9 °C 1024.6 hPa North 11.9 km/h 14.8 km/h 68 % 0 mm
07:07 -7.1 °C -12 °C 1024.6 hPa NNE 7.7 km/h 11.1 km/h 68 % 0 mm
07:12 -7.2 °C -12.1 °C 1024.6 hPa North 7.6 km/h 13 km/h 68 % 0 mm
07:17 -7.3 °C -12.2 °C 1024.6 hPa North 3.4 km/h 16.7 km/h 68 % 0 mm
07:22 -7.4 °C -12.3 °C 1024.6 hPa NNE 6.1 km/h 14.8 km/h 68 % 0 mm
07:27 -7.4 °C -12.2 °C 1024.6 hPa NNW 2.7 km/h 7.4 km/h 69 % 0 mm
07:32 -7.5 °C -12.2 °C 1024.9 hPa North 8 km/h 11.1 km/h 69 % 0 mm
07:37 -7.5 °C -12.2 °C 1024.6 hPa NW 2.6 km/h 6.4 km/h 69 % 0 mm
07:42 -7.5 °C -12.4 °C 1024.9 hPa WNW 5.6 km/h 11.1 km/h 68 % 0 mm
07:47 -7.4 °C -12.3 °C 1024.9 hPa North 5.8 km/h 7.4 km/h 68 % 0 mm
07:52 -7.3 °C -12.4 °C 1024.9 hPa North 5 km/h 8 km/h 67 % 0 mm
07:57 -7.2 °C -12.4 °C 1024.9 hPa North 2.7 km/h 11.3 km/h 66 % 0 mm
08:02 -7.1 °C -13.1 °C 1024.9 hPa NW 7.7 km/h 18.5 km/h 62 % 0 mm
08:07 -6.9 °C -13.2 °C 1024.9 hPa NNW 7.6 km/h 11.3 km/h 61 % 0 mm
08:12 -6.8 °C -12.8 °C 1024.9 hPa NNE 6.9 km/h 9.3 km/h 62 % 0 mm
08:17 -6.7 °C -13.3 °C 1024.9 hPa WNW 7.7 km/h 13 km/h 59 % 0 mm
08:22 -6.5 °C -13.2 °C 1024.9 hPa NNW 3.9 km/h 5.6 km/h 59 % 0 mm
08:27 -6.3 °C -12.8 °C 1024.9 hPa NW 7.1 km/h 11.1 km/h 60 % 0 mm
08:32 -6.1 °C -12.8 °C 1024.9 hPa NNW 3.7 km/h 9.3 km/h 59 % 0 mm
08:37 -5.9 °C -12.4 °C 1025.3 hPa NW 5.8 km/h 11.1 km/h 60 % 0 mm
08:42 -5.8 °C -12.5 °C 1025.3 hPa WNW 5.6 km/h 9.7 km/h 59 % 0 mm
08:47 -5.7 °C -12.6 °C 1025.3 hPa North 6.3 km/h 11.1 km/h 58 % 0 mm
08:52 -5.7 °C -12.6 °C 1025.3 hPa NW 3.9 km/h 11.1 km/h 58 % 0 mm
08:57 -5.6 °C -12.6 °C 1025.3 hPa NW 5.5 km/h 7.4 km/h 58 % 0 mm
09:02 -5.6 °C -12.7 °C 1025.3 hPa NW 6.6 km/h 9.7 km/h 57 % 0 mm
09:07 -5.5 °C -12.3 °C 1025.3 hPa North 6 km/h 11.1 km/h 59 % 0 mm
09:12 -5.4 °C -12.2 °C 1025.3 hPa North 3.4 km/h 7.4 km/h 59 % 0 mm
09:17 -5.2 °C -12 °C 1025.3 hPa NW 5.1 km/h 8 km/h 59 % 0 mm
09:22 -5.2 °C -12.2 °C 1025.3 hPa North 7.2 km/h 9.7 km/h 58 % 0 mm
09:27 -5 °C -12 °C 1025.3 hPa WNW 4.3 km/h 7.4 km/h 58 % 0 mm
09:33 -4.8 °C -11.8 °C 1025.3 hPa WNW 5.5 km/h 9.7 km/h 58 % 0 mm
09:38 -4.8 °C -12.7 °C 1025.3 hPa WNW 9.8 km/h 14.8 km/h 54 % 0 mm
09:43 -4.7 °C -11.9 °C 1025.3 hPa North 6.1 km/h 9.7 km/h 57 % 0 mm
09:48 -4.6 °C -12.1 °C 1024.9 hPa North 9.2 km/h 11.3 km/h 56 % 0 mm
09:53 -4.6 °C -11.8 °C 1024.9 hPa NNE 6 km/h 11.1 km/h 57 % 0 mm
09:58 -4.4 °C -11.7 °C 1024.9 hPa North 3.4 km/h 7.4 km/h 57 % 0 mm
10:03 -4.4 °C -12.1 °C 1024.9 hPa North 4.8 km/h 14.5 km/h 55 % 0 mm
10:08 -4.4 °C -11.7 °C 1024.9 hPa North 4.8 km/h 9.7 km/h 57 % 0 mm
10:13 -4.4 °C -12.4 °C 1024.9 hPa NNW 3.2 km/h 14.5 km/h 54 % 0 mm
10:18 -4.4 °C -11.9 °C 1024.9 hPa NW 6.9 km/h 9.3 km/h 56 % 0 mm
10:23 -4.2 °C -11.9 °C 1025.3 hPa North 7.4 km/h 13 km/h 55 % 0 mm
10:28 -3.9 °C -11.7 °C 1025.3 hPa NW 3.9 km/h 13 km/h 55 % 0 mm
10:33 -3.6 °C -11.8 °C 1025.3 hPa NNE 7.7 km/h 11.3 km/h 53 % 0 mm
10:38 -3.3 °C -11.5 °C 1024.9 hPa NW 4.5 km/h 7.4 km/h 53 % 0 mm
10:44 -3.1 °C -11.8 °C 1025.3 hPa NNW 5.8 km/h 13 km/h 51 % 0 mm
10:49 -3 °C -12 °C 1024.9 hPa WNW 6.3 km/h 11.1 km/h 50 % 0 mm
10:59 -2.9 °C -12.2 °C 1024.9 hPa NNW 6.4 km/h 14.5 km/h 49 % 0 mm
13:32 -1.1 °C -11.2 °C 1024.3 hPa NW 10.5 km/h 27.8 km/h 46 % 0 mm
13:37 -0.9 °C -11.1 °C 1023.9 hPa West 9 km/h 20.4 km/h 46 % 0 mm
13:42 -0.9 °C -11.3 °C 1023.9 hPa WNW 15.1 km/h 22.2 km/h 45 % 0 mm
13:46 -0.8 °C -11.3 °C 1023.6 hPa NNW 16.1 km/h 19.3 km/h 45 % 0 mm
13:47 -0.8 °C -11 °C 1023.6 hPa NW 10.9 km/h 25.9 km/h 46 % 0 mm
13:52 -0.7 °C -10.9 °C 1023.6 hPa NNW 15.6 km/h 18.5 km/h 46 % 0 mm
13:57 -0.7 °C -11.5 °C 1023.6 hPa West 16.9 km/h 27.8 km/h 44 % 0 mm
14:02 -0.9 °C -11.6 °C 1023.6 hPa WNW 8.9 km/h 18.5 km/h 44 % 0 mm
14:07 -0.9 °C -11.1 °C 1023.6 hPa SW 12.1 km/h 20.4 km/h 46 % 0 mm
14:12 -0.9 °C -11.7 °C 1023.6 hPa West 9.5 km/h 27.8 km/h 44 % 0 mm
14:17 -1 °C -12 °C 1023.6 hPa West 11.4 km/h 24.1 km/h 43 % 0 mm
14:22 -0.9 °C -11.1 °C 1023.6 hPa West 8.7 km/h 14.8 km/h 46 % 0 mm
14:27 -0.7 °C -10.9 °C 1023.6 hPa WNW 8.9 km/h 25.9 km/h 46 % 0 mm
14:32 -0.5 °C -10.7 °C 1023.6 hPa West 8.9 km/h 16.7 km/h 46 % 0 mm
14:37 -0.5 °C -11 °C 1023.2 hPa WNW 9 km/h 18.5 km/h 45 % 0 mm
14:47 -0.3 °C -10 °C 1023.2 hPa West 10.5 km/h 22.5 km/h 48 % 0 mm
14:52 -0.3 °C -10.5 °C 1023.2 hPa NNW 11.4 km/h 24.1 km/h 46 % 0 mm
14:57 -0.4 °C -10.7 °C 1023.2 hPa West 15.3 km/h 31.5 km/h 46 % 0 mm
15:02 -0.4 °C -10.9 °C 1023.2 hPa SW 9.8 km/h 18.5 km/h 45 % 0 mm
15:07 -0.4 °C -11.2 °C 1023.2 hPa West 5.5 km/h 16.7 km/h 44 % 0 mm
15:12 -0.4 °C -11.2 °C 1023.2 hPa WNW 12.6 km/h 18.5 km/h 44 % 0 mm
15:17 -0.4 °C -11.4 °C 1023.2 hPa NW 12.6 km/h 18.5 km/h 43 % 0 mm
15:22 -0.4 °C -11.2 °C 1023.2 hPa WSW 9 km/h 18.5 km/h 44 % 0 mm
15:28 -0.4 °C -10.9 °C 1023.2 hPa NW 17.9 km/h 29 km/h 45 % 0 mm
15:33 -0.6 °C -11.3 °C 1023.2 hPa West 8.4 km/h 14.8 km/h 44 % 0 mm
15:38 -0.6 °C -11.1 °C 1023.2 hPa WNW 11.6 km/h 20.4 km/h 45 % 0 mm
15:43 -0.6 °C -11.1 °C 1023.2 hPa West 12.9 km/h 27.4 km/h 45 % 0 mm
15:48 -0.7 °C -11.2 °C 1023.2 hPa WNW 14.5 km/h 29 km/h 45 % 0 mm
15:53 -0.7 °C -10.7 °C 1023.2 hPa WNW 12.9 km/h 27.4 km/h 47 % 0 mm
15:58 -0.8 °C -11 °C 1023.2 hPa WNW 12.7 km/h 29.6 km/h 46 % 0 mm
16:03 -0.9 °C -12 °C 1023.2 hPa NW 17.1 km/h 33.3 km/h 43 % 0 mm
16:08 -1.1 °C -11.8 °C 1023.2 hPa WNW 17.1 km/h 27.8 km/h 44 % 0 mm
16:13 -1.2 °C -11.6 °C 1023.2 hPa West 19 km/h 25.9 km/h 45 % 0 mm
16:18 -1.3 °C -11.7 °C 1023.6 hPa WNW 16.4 km/h 29.6 km/h 45 % 0 mm
16:23 -1.3 °C -11.8 °C 1023.2 hPa NW 9.5 km/h 22.2 km/h 45 % 0 mm
16:28 -1.3 °C -11.8 °C 1023.2 hPa NW 9.3 km/h 27.8 km/h 45 % 0 mm
16:33 -1.3 °C -11.5 °C 1023.2 hPa West 11.1 km/h 27.4 km/h 46 % 0 mm
16:38 -1.4 °C -11.8 °C 1023.2 hPa WNW 11.3 km/h 27.4 km/h 45 % 0 mm
16:43 -1.4 °C -11.6 °C 1023.2 hPa NW 15.4 km/h 25.9 km/h 46 % 0 mm
16:48 -1.4 °C -11.6 °C 1023.2 hPa WNW 10.1 km/h 14.8 km/h 46 % 0 mm
16:53 -1.4 °C -11.6 °C 1023.2 hPa SSW 9.8 km/h 18.5 km/h 46 % 0 mm
16:58 -1.4 °C -11.6 °C 1023.2 hPa NW 8 km/h 22.2 km/h 46 % 0 mm
17:03 -1.4 °C -11.8 °C 1023.2 hPa WNW 12.1 km/h 18.5 km/h 45 % 0 mm
17:06 -1.4 °C -11.9 °C 1023.2 hPa WNW 10.5 km/h 18.5 km/h 45 % 0 mm
17:11 -1.4 °C -11.1 °C 1023.2 hPa WNW 13.8 km/h 18.5 km/h 48 % 0 mm
17:16 -1.5 °C -11.9 °C 1023.2 hPa WSW 14.6 km/h 18.5 km/h 45 % 0 mm
17:21 -1.6 °C -11.4 °C 1023.2 hPa West 10.8 km/h 16.7 km/h 47 % 0 mm
17:26 -1.7 °C -11.5 °C 1023.2 hPa West 15.3 km/h 22.2 km/h 47 % 0 mm
17:31 -1.7 °C -11.8 °C 1023.2 hPa NW 11.6 km/h 20.4 km/h 46 % 0 mm
17:36 -1.8 °C -11.6 °C 1023.2 hPa West 17.5 km/h 33.3 km/h 47 % 0 mm
17:41 -1.8 °C -11.6 °C 1023.2 hPa WNW 11.3 km/h 24.1 km/h 47 % 0 mm
17:46 -1.8 °C -11.9 °C 1023.6 hPa WNW 18.8 km/h 31.5 km/h 46 % 0 mm
17:51 -1.9 °C -12 °C 1023.6 hPa NW 15 km/h 25.9 km/h 46 % 0 mm
17:56 -1.9 °C -11.5 °C 1023.6 hPa NW 10.6 km/h 18.5 km/h 48 % 0 mm
18:01 -2 °C -11.6 °C 1023.9 hPa North 13.5 km/h 24.1 km/h 48 % 0 mm
18:06 -2 °C -11.6 °C 1023.9 hPa NNW 5.3 km/h 18.5 km/h 48 % 0 mm
18:12 -2.1 °C -11.9 °C 1023.9 hPa WNW 14.8 km/h 29 km/h 47 % 0 mm
18:17 -2.1 °C -11.9 °C 1024.3 hPa WNW 14.2 km/h 16.7 km/h 47 % 0 mm
18:22 -2.2 °C -11.7 °C 1023.9 hPa North 15.6 km/h 19.3 km/h 48 % 0 mm
18:27 -2.2 °C -12.1 °C 1023.9 hPa NNW 15.6 km/h 27.8 km/h 47 % 0 mm
18:32 -2.2 °C -12.1 °C 1024.3 hPa WNW 16.1 km/h 31.5 km/h 47 % 0 mm
18:37 -2.3 °C -12.3 °C 1024.3 hPa WNW 15.9 km/h 25.9 km/h 46 % 0 mm
18:42 -2.3 °C -12.4 °C 1024.3 hPa WNW 13 km/h 25.9 km/h 46 % 0 mm
18:47 -2.4 °C -12.4 °C 1024.6 hPa NW 15.3 km/h 29.6 km/h 46 % 0 mm
18:49 -2.4 °C -12.2 °C 1024.6 hPa WNW 10.1 km/h 24.1 km/h 47 % 0 mm
18:52 -2.4 °C -12.2 °C 1024.6 hPa WNW 14.3 km/h 32.2 km/h 47 % 0 mm
18:57 -2.4 °C -12.2 °C 1024.6 hPa NW 11.4 km/h 14.8 km/h 47 % 0 mm
18:59 -2.5 °C -12.3 °C 1024.6 hPa West 13.2 km/h 27.8 km/h 47 % 0 mm
19:03 -2.5 °C -12.6 °C 1024.6 hPa WNW 13.4 km/h 27.8 km/h 46 % 0 mm
19:08 -2.6 °C -12.3 °C 1024.6 hPa WNW 12.9 km/h 24.1 km/h 47 % 0 mm
19:13 -2.6 °C -11.8 °C 1024.9 hPa NW 11.6 km/h 20.9 km/h 49 % 0 mm
19:18 -2.6 °C -12.4 °C 1024.9 hPa WNW 12.9 km/h 19.3 km/h 47 % 0 mm
19:23 -2.7 °C -12.4 °C 1024.9 hPa NW 17.7 km/h 31.5 km/h 47 % 0 mm
19:28 -2.7 °C -12.2 °C 1024.9 hPa WNW 19.6 km/h 31.5 km/h 48 % 0 mm
19:33 -2.7 °C -12.4 °C 1025.3 hPa NW 7.4 km/h 29.6 km/h 47 % 0 mm
19:38 -2.7 °C -12.5 °C 1025.3 hPa NW 12.4 km/h 25.9 km/h 47 % 0 mm
19:43 -2.7 °C -12.2 °C 1025.3 hPa NW 9.7 km/h 19.3 km/h 48 % 0 mm
19:48 -2.8 °C -12.6 °C 1025.6 hPa NW 12.9 km/h 29 km/h 47 % 0 mm
19:53 -2.8 °C -12.6 °C 1025.6 hPa NW 14.5 km/h 29 km/h 47 % 0 mm
19:58 -2.9 °C -12.7 °C 1025.6 hPa NNW 14.6 km/h 25.9 km/h 47 % 0 mm
20:03 -2.9 °C -12.4 °C 1026 hPa WNW 14.5 km/h 29.6 km/h 48 % 0 mm
20:08 -2.9 °C -12.2 °C 1026 hPa WNW 15.9 km/h 24.1 km/h 49 % 0 mm
20:13 -2.9 °C -12.2 °C 1026.3 hPa NW 11.6 km/h 20.4 km/h 49 % 0 mm
20:18 -3 °C -12.7 °C 1026.3 hPa WNW 15.8 km/h 24.1 km/h 47 % 0 mm
20:23 -3.1 °C -12.3 °C 1026.3 hPa NW 10 km/h 18.5 km/h 49 % 0 mm
20:28 -3.2 °C -12.7 °C 1026.3 hPa NNW 13.8 km/h 22.5 km/h 48 % 0 mm
20:33 -3.2 °C -12.7 °C 1026.6 hPa North 13.8 km/h 29.6 km/h 48 % 0 mm
20:38 -3.2 °C -12.2 °C 1026.6 hPa NW 12.2 km/h 18.5 km/h 50 % 0 mm
20:43 -3.3 °C -12.7 °C 1026.6 hPa WNW 15.9 km/h 24.1 km/h 48 % 0 mm
20:48 -3.3 °C -12.6 °C 1027 hPa WNW 11.7 km/h 27.8 km/h 49 % 0 mm
20:53 -3.4 °C -12.6 °C 1027 hPa WNW 10.9 km/h 18.5 km/h 49 % 0 mm
20:58 -3.4 °C -12.8 °C 1027 hPa NW 9.7 km/h 16.7 km/h 48 % 0 mm
21:03 -3.4 °C -12.9 °C 1027.3 hPa NNW 12.2 km/h 22.2 km/h 48 % 0 mm
21:08 -3.4 °C -12.7 °C 1027 hPa NNW 13.5 km/h 22.2 km/h 49 % 0 mm
21:13 -3.5 °C -12.2 °C 1027 hPa NNW 11.6 km/h 18.5 km/h 51 % 0 mm
21:18 -3.5 °C -12.7 °C 1027 hPa NNW 14.6 km/h 25.9 km/h 49 % 0 mm
21:23 -3.6 °C -12.7 °C 1027.3 hPa WNW 11.3 km/h 24.1 km/h 49 % 0 mm
21:28 -3.6 °C -13.3 °C 1027.3 hPa West 13.5 km/h 29.6 km/h 47 % 0 mm
21:34 -3.7 °C -13.1 °C 1027.3 hPa NNW 13.2 km/h 20.4 km/h 48 % 0 mm
21:39 -3.7 °C -12.6 °C 1027.3 hPa NW 10.5 km/h 19.3 km/h 50 % 0 mm
21:44 -3.7 °C -12.8 °C 1027.3 hPa NW 10.6 km/h 25.9 km/h 49 % 0 mm
21:49 -3.7 °C -12.3 °C 1027.3 hPa WNW 20.8 km/h 32.2 km/h 51 % 0 mm
21:54 -3.7 °C -13.2 °C 1027.3 hPa NNW 15.9 km/h 24.1 km/h 48 % 0 mm
21:59 -3.8 °C -13.4 °C 1027.3 hPa WNW 15.3 km/h 22.5 km/h 47 % 0 mm
22:04 -3.8 °C -13 °C 1027.3 hPa West 11.6 km/h 16.7 km/h 49 % 0 mm
22:09 -3.9 °C -13.1 °C 1027.3 hPa WNW 9.5 km/h 20.4 km/h 49 % 0 mm
22:14 -3.9 °C -13.3 °C 1027.7 hPa NNW 10 km/h 18.5 km/h 48 % 0 mm
22:19 -3.9 °C -13.3 °C 1027.7 hPa WNW 12.4 km/h 22.2 km/h 48 % 0 mm
22:24 -4 °C -12.9 °C 1027.7 hPa NNW 7.7 km/h 20.4 km/h 50 % 0 mm
22:29 -4 °C -12.9 °C 1028 hPa NNW 14.3 km/h 25.9 km/h 50 % 0 mm
22:34 -4 °C -12.9 °C 1028 hPa NW 14.6 km/h 24.1 km/h 50 % 0 mm
22:39 -4 °C -13.2 °C 1028 hPa NW 11.1 km/h 18.5 km/h 49 % 0 mm
22:44 -4.1 °C -12.7 °C 1028 hPa NW 10.1 km/h 18.5 km/h 51 % 0 mm
22:49 -4.1 °C -13.4 °C 1028 hPa NW 14 km/h 24.1 km/h 48 % 0 mm
22:54 -4.2 °C -14.1 °C 1028 hPa NW 11.9 km/h 22.2 km/h 46 % 0 mm
22:59 -4.2 °C -13.4 °C 1028 hPa North 8.2 km/h 18.5 km/h 49 % 0 mm
23:05 -4.3 °C -13.4 °C 1028 hPa NNW 10.1 km/h 20.4 km/h 49 % 0 mm
23:10 -4.3 °C -13.4 °C 1028 hPa WNW 12.1 km/h 27.8 km/h 49 % 0 mm
23:15 -4.4 °C -13.3 °C 1028 hPa NNW 5.6 km/h 11.1 km/h 50 % 0 mm
23:20 -4.4 °C -12.8 °C 1028 hPa NNW 13.5 km/h 27.8 km/h 52 % 0 mm
23:25 -4.4 °C -13.1 °C 1028.3 hPa NW 10.6 km/h 29 km/h 51 % 0 mm
23:30 -4.6 °C -13.7 °C 1028.3 hPa NNW 13.4 km/h 27.8 km/h 49 % 0 mm
23:35 -4.6 °C -13.7 °C 1028.3 hPa NNW 13.5 km/h 27.8 km/h 49 % 0 mm
23:40 -4.7 °C -13.6 °C 1028.7 hPa NW 11.7 km/h 22.2 km/h 50 % 0 mm
23:45 -4.7 °C -13.8 °C 1028.7 hPa NNW 17.1 km/h 27.8 km/h 49 % 0 mm
23:50 -4.8 °C -13.9 °C 1028.7 hPa WNW 11.4 km/h 24.1 km/h 49 % 0 mm
23:55 -4.8 °C -13.7 °C 1028.7 hPa NNW 10.5 km/h 16.7 km/h 50 % 0 mm
Crab Meadow Weather
Compliments of Weather Underground - 3 mb

Script developed by  Jim McMurry - jmcmurry@mwt.net Adapted for the template by  Wim van der Kuil - Leuven-Template.eu

Weather Terms: Dew Point - A measure of atmospheric moisture. It is the temperature to which air must be cooled in order to reach saturation (assuming pressure and moisture content are constant).